Location: Casalecchio di Reno
(44.4760°N, 11.2757°E)
Time: 16:49:59
(UTC+02:00)

DX 1 - Pass Details

Date: 19 June 2024
Orbit: 607 x 619 km, 98.3° (Epoch: 19 July)

Event Time Altitude Azimuth Distance (km) Brightness Sun altitude
Rises 00:15:46 0° 30° (NNE) 2,876 ? -20.7°
Reaches altitude 10° 00:18:40 10° 52° (NE) 1,966 ? -20.8°
Maximum altitude 00:21:26 17° 92° (E) 1,568 ? -20.9°
Enters shadow 00:21:27 17° 92° (E) 1,568 ? -20.9°
